Starlink 11152

operational
NORAD ID: 60194 Int'l Des: 2024-124 Owner: SPXS Country: US Constellation: starlink
LEOCIRCULAR

About Starlink 11152

Description loading...

Live Position

Loading 3D Globe...

Upcoming Passes

Altitude History

Altitude vs Time

uPlot chart will show altitude changes over time

Two-Line Element Set

1 60194U 24124M 25303.80419009 .00013726 00000-0 11790-3 0 9997
2 60194 53.1572 81.5765 0000292 4.9422 355.1598 15.69722632 77329
Epoch: Oct 30, 2025 • Age: 25 hours

Current Status

Altitude 365.9 km
Velocity 7.70 km/s
Sub-Earth Point 51.91°N, 158.46°W
Launch Date Jul 3, 2024
Age 1.3 years
Type internet

Technical Details

Classification Payload
Mass 960.00 kg
Dry Mass 910.00 kg
Total Mass 960.00 kg
Length 0.30 m
Diameter 4.10 m
Span 29.00 m
Shape Box + pan
Manufacturer SPXS
Bus Type Starlink V2MD
Phase Status In Orbit
Owner/State SPXS/US

Large Constellations

Loading constellations...